Time,TemperatureF,DewpointF,PressureIn,WindDirection,WindDirectionDegrees,WindSpeedMPH,WindSpeedGustMPH,Humidity,HourlyPrecipIn,Conditions,Clouds,dailyrainin,SoftwareType,DateUTC
2013-01-06 00:00:00,41.4,38.1,30.32,West,280,3.0,10.0,88,0.00,,,0.01,Wunderground v.1.15,2013-01-06 06:00:00,
2013-01-06 00:06:00,41.3,37.7,30.33,West,278,3.0,10.0,87,0.00,,,0.00,Wunderground v.1.15,2013-01-06 06:06:00,
2013-01-06 00:12:00,40.9,37.6,30.33,West,280,3.0,10.0,88,0.00,,,0.00,Wunderground v.1.15,2013-01-06 06:12:00,
2013-01-06 00:18:00,40.8,37.5,30.33,West,276,3.0,10.0,88,0.00,,,0.00,Wunderground v.1.15,2013-01-06 06:18:00,
2013-01-06 00:23:00,40.6,37.3,30.33,West,276,3.0,10.0,88,0.00,,,0.00,Wunderground v.1.15,2013-01-06 06:23:00,
2013-01-06 00:30:00,40.6,37.6,30.33,West,278,3.0,10.0,89,0.00,,,0.00,Wunderground v.1.15,2013-01-06 06:30:00,
2013-01-06 00:36:00,40.7,37.7,30.32,West,281,3.0,10.0,89,0.00,,,0.00,Wunderground v.1.15,2013-01-06 06:36:00,
2013-01-06 00:42:00,40.7,37.7,30.33,West,281,3.0,10.0,89,0.00,,,0.00,Wunderground v.1.15,2013-01-06 06:42:00,
2013-01-06 00:47:00,40.8,37.5,30.33,WNW,283,3.0,10.0,88,0.00,,,0.00,Wunderground v.1.15,2013-01-06 06:47:00,
2013-01-06 00:52:00,40.6,37.3,30.33,WNW,287,2.0,10.0,88,0.00,,,0.00,Wunderground v.1.15,2013-01-06 06:52:00,
2013-01-06 00:58:00,39.8,36.8,30.33,NNW,329,1.0,10.0,89,0.00,,,0.00,Wunderground v.1.15,2013-01-06 06:58:00,
2013-01-06 01:04:00,39.6,36.6,30.33,NNW,329,1.0,10.0,89,0.00,,,0.00,Wunderground v.1.15,2013-01-06 07:04:00,
2013-01-06 01:10:00,39.6,36.9,30.33,NW,326,2.0,10.0,90,0.00,,,0.00,Wunderground v.1.15,2013-01-06 07:10:00,
2013-01-06 01:16:00,39.9,37.2,30.33,NW,321,3.0,10.0,90,0.00,,,0.00,Wunderground v.1.15,2013-01-06 07:16:00,
2013-01-06 01:21:00,40.2,36.9,30.33,NW,314,3.0,10.0,88,0.00,,,0.00,Wunderground v.1.15,2013-01-06 07:21:00,
2013-01-06 01:27:00,40.1,36.5,30.33,NW,326,3.0,10.0,87,0.00,,,0.00,Wunderground v.1.15,2013-01-06 07:27:00,
2013-01-06 01:33:00,39.7,36.4,30.33,NW,325,2.0,10.0,88,0.00,,,0.00,Wunderground v.1.15,2013-01-06 07:33:00,
2013-01-06 01:39:00,39.8,36.8,30.34,NW,322,2.0,10.0,89,0.00,,,0.00,Wunderground v.1.15,2013-01-06 07:39:00,
2013-01-06 01:45:00,40.1,36.8,30.34,NW,320,3.0,10.0,88,0.00,,,0.00,Wunderground v.1.15,2013-01-06 07:45:00,
2013-01-06 01:51:00,40.3,37.0,30.34,NW,321,3.0,10.0,88,0.00,,,0.00,Wunderground v.1.15,2013-01-06 07:51:00,
2013-01-06 01:57:00,40.0,36.4,30.34,NW,314,3.0,10.0,87,0.00,,,0.00,Wunderground v.1.15,2013-01-06 07:57:00,
2013-01-06 02:03:00,39.7,36.1,30.33,NW,309,3.0,10.0,87,0.00,,,0.00,Wunderground v.1.15,2013-01-06 08:03:00,
2013-01-06 02:09:00,39.2,35.7,30.34,NW,309,3.0,10.0,87,0.00,,,0.00,Wunderground v.1.15,2013-01-06 08:09:00,
2013-01-06 02:14:00,38.9,35.4,30.34,WNW,301,3.0,10.0,87,0.00,,,0.00,Wunderground v.1.15,2013-01-06 08:14:00,
2013-01-06 02:20:00,38.7,35.2,30.34,WNW,294,3.0,10.0,87,0.00,,,0.00,Wunderground v.1.15,2013-01-06 08:20:00,
2013-01-06 02:26:00,38.3,34.8,30.34,WNW,294,3.0,10.0,87,0.00,,,0.00,Wunderground v.1.15,2013-01-06 08:26:00,
2013-01-06 02:32:00,38.1,34.6,30.34,NW,317,3.0,10.0,87,0.00,,,0.00,Wunderground v.1.15,2013-01-06 08:32:00,
2013-01-06 02:39:00,38.1,34.3,30.34,NW,311,4.0,10.0,86,0.00,,,0.00,Wunderground v.1.15,2013-01-06 08:39:00,
2013-01-06 02:45:00,38.1,34.3,30.34,NW,304,4.0,10.0,86,0.00,,,0.00,Wunderground v.1.15,2013-01-06 08:45:00,
2013-01-06 02:50:00,38.0,33.9,30.34,NW,312,4.0,10.0,85,0.00,,,0.00,Wunderground v.1.15,2013-01-06 08:50:00,
2013-01-06 02:56:00,38.0,33.9,30.34,NW,309,4.0,10.0,85,0.00,,,0.00,Wunderground v.1.15,2013-01-06 08:56:00,
2013-01-06 03:01:00,37.9,33.8,30.34,NW,314,4.0,10.0,85,0.00,,,0.00,Wunderground v.1.15,2013-01-06 09:01:00,
2013-01-06 03:07:00,37.8,33.7,30.34,NW,317,4.0,10.0,85,0.00,,,0.00,Wunderground v.1.15,2013-01-06 09:07:00,
2013-01-06 03:13:00,37.6,33.5,30.34,NW,326,4.0,10.0,85,0.00,,,0.00,Wunderground v.1.15,2013-01-06 09:13:00,
2013-01-06 03:19:00,37.3,33.2,30.34,NW,322,3.0,10.0,85,0.00,,,0.00,Wunderground v.1.15,2013-01-06 09:19:00,
2013-01-06 03:25:00,37.3,33.2,30.34,NW,316,3.0,10.0,85,0.00,,,0.00,Wunderground v.1.15,2013-01-06 09:25:00,
2013-01-06 03:31:00,37.2,33.1,30.34,NW,321,3.0,10.0,85,0.00,,,0.00,Wunderground v.1.15,2013-01-06 09:31:00,
2013-01-06 03:37:00,37.2,33.1,30.34,NW,326,3.0,10.0,85,0.00,,,0.00,Wunderground v.1.15,2013-01-06 09:37:00,
2013-01-06 03:43:00,37.3,32.9,30.34,NW,326,4.0,10.0,84,0.00,,,0.00,Wunderground v.1.15,2013-01-06 09:43:00,
2013-01-06 03:49:00,37.2,32.8,30.34,NW,323,4.0,10.0,84,0.00,,,0.00,Wunderground v.1.15,2013-01-06 09:49:00,
2013-01-06 03:54:00,36.9,32.5,30.34,NW,321,4.0,10.0,84,0.00,,,0.00,Wunderground v.1.15,2013-01-06 09:54:00,
2013-01-06 04:00:00,36.7,32.3,30.34,NNW,330,4.0,10.0,84,0.00,,,0.00,Wunderground v.1.15,2013-01-06 10:00:00,
2013-01-06 04:06:00,36.4,32.0,30.34,NNW,333,4.0,10.0,84,0.00,,,0.00,Wunderground v.1.15,2013-01-06 10:06:00,
2013-01-06 04:12:00,36.1,31.7,30.34,NW,326,4.0,10.0,84,0.00,,,0.00,Wunderground v.1.15,2013-01-06 10:12:00,
2013-01-06 04:18:00,36.4,32.0,30.34,NW,326,4.0,10.0,84,0.00,,,0.00,Wunderground v.1.15,2013-01-06 10:18:00,
2013-01-06 04:24:00,37.0,32.0,30.34,NW,323,4.0,10.0,82,0.00,,,0.00,Wunderground v.1.15,2013-01-06 10:24:00,
2013-01-06 04:29:00,37.2,31.9,30.34,NW,318,5.0,10.0,81,0.00,,,0.00,Wunderground v.1.15,2013-01-06 10:29:00,
2013-01-06 04:35:00,37.3,31.7,30.34,NW,314,4.0,10.0,80,0.00,,,0.00,Wunderground v.1.15,2013-01-06 10:35:00,
2013-01-06 04:41:00,37.4,31.8,30.34,NW,319,4.0,10.0,80,0.00,,,0.00,Wunderground v.1.15,2013-01-06 10:41:00,
2013-01-06 04:47:00,37.3,31.4,30.34,NW,326,3.0,10.0,79,0.00,,,0.00,Wunderground v.1.15,2013-01-06 10:47:00,
2013-01-06 04:53:00,37.1,31.2,30.34,NW,326,4.0,10.0,79,0.00,,,0.00,Wunderground v.1.15,2013-01-06 10:53:00,
2013-01-06 04:59:00,36.9,31.0,30.34,NW,325,4.0,10.0,79,0.00,,,0.00,Wunderground v.1.15,2013-01-06 10:59:00,
2013-01-06 05:05:00,36.7,30.8,30.34,NW,321,4.0,10.0,79,0.00,,,0.00,Wunderground v.1.15,2013-01-06 11:05:00,
2013-01-06 05:11:00,36.4,30.5,30.34,NW,326,4.0,10.0,79,0.00,,,0.00,Wunderground v.1.15,2013-01-06 11:11:00,
2013-01-06 05:17:00,36.0,30.1,30.34,NNW,333,4.0,10.0,79,0.00,,,0.00,Wunderground v.1.15,2013-01-06 11:17:00,
2013-01-06 05:23:00,35.7,29.8,30.34,NNW,342,5.0,10.0,79,0.00,,,0.00,Wunderground v.1.15,2013-01-06 11:23:00,
2013-01-06 05:29:00,35.6,29.7,30.34,NW,326,5.0,10.0,79,0.00,,,0.00,Wunderground v.1.15,2013-01-06 11:29:00,
2013-01-06 05:35:00,35.8,29.6,30.34,NNW,330,5.0,10.0,78,0.00,,,0.00,Wunderground v.1.15,2013-01-06 11:35:00,
2013-01-06 05:40:00,35.6,29.7,30.34,NW,322,5.0,10.0,79,0.00,,,0.00,Wunderground v.1.15,2013-01-06 11:40:00,
2013-01-06 05:46:00,35.3,29.4,30.33,NNW,348,5.0,10.0,79,0.00,,,0.00,Wunderground v.1.15,2013-01-06 11:46:00,
2013-01-06 05:52:00,35.3,29.4,30.33,North,349,6.0,10.0,79,0.00,,,0.00,Wunderground v.1.15,2013-01-06 11:52:00,
2013-01-06 05:58:00,35.3,29.1,30.34,NNW,342,7.0,10.0,78,0.00,,,0.00,Wunderground v.1.15,2013-01-06 11:58:00,
2013-01-06 06:04:00,35.6,29.1,30.34,North,6,8.0,10.0,77,0.00,,,0.00,Wunderground v.1.15,2013-01-06 12:04:00,
2013-01-06 06:09:00,35.7,29.2,30.34,North,352,8.0,10.0,77,0.00,,,0.00,Wunderground v.1.15,2013-01-06 12:09:00,
2013-01-06 06:15:00,35.6,28.8,30.34,North,354,8.0,10.0,76,0.00,,,0.00,Wunderground v.1.15,2013-01-06 12:15:00,
2013-01-06 06:21:00,35.3,28.8,30.34,NNW,345,7.0,10.0,77,0.00,,,0.00,Wunderground v.1.15,2013-01-06 12:21:00,
2013-01-06 06:27:00,34.9,28.4,30.35,NNW,342,7.0,10.0,77,0.00,,,0.00,Wunderground v.1.15,2013-01-06 12:27:00,
2013-01-06 06:32:00,34.8,28.3,30.35,NNW,345,7.0,10.0,77,0.00,,,0.00,Wunderground v.1.15,2013-01-06 12:32:00,
2013-01-06 06:38:00,34.8,28.3,30.35,North,355,7.0,10.0,77,0.00,,,0.00,Wunderground v.1.15,2013-01-06 12:38:00,
2013-01-06 06:44:00,34.5,28.0,30.36,NNW,342,7.0,10.0,77,0.00,,,0.00,Wunderground v.1.15,2013-01-06 12:44:00,
2013-01-06 06:49:00,34.0,27.9,30.36,North,350,7.0,10.0,78,0.00,,,0.00,Wunderground v.1.15,2013-01-06 12:49:00,
2013-01-06 06:55:00,33.5,27.4,30.36,North,357,7.0,11.0,78,0.00,,,0.00,Wunderground v.1.15,2013-01-06 12:55:00,
2013-01-06 07:01:00,32.9,27.1,30.36,North,11,7.0,10.0,79,0.00,,,0.00,Wunderground v.1.15,2013-01-06 13:01:00,
2013-01-06 07:07:00,32.7,27.2,30.37,North,352,7.0,10.0,80,0.00,,,0.00,Wunderground v.1.15,2013-01-06 13:07:00,
2013-01-06 07:12:00,32.7,27.2,30.37,NNW,342,7.0,10.0,80,0.00,,,0.00,Wunderground v.1.15,2013-01-06 13:12:00,
2013-01-06 07:18:00,32.9,27.1,30.37,NNW,340,6.0,10.0,79,0.00,,,0.00,Wunderground v.1.15,2013-01-06 13:18:00,
2013-01-06 07:24:00,32.9,27.1,30.38,NNW,345,6.0,10.0,79,0.00,,,0.00,Wunderground v.1.15,2013-01-06 13:24:00,
2013-01-06 07:29:00,32.9,26.8,30.38,NNW,336,6.0,10.0,78,0.00,,,0.00,Wunderground v.1.15,2013-01-06 13:29:00,
2013-01-06 07:35:00,32.9,26.8,30.39,NNW,338,5.0,10.0,78,0.00,,,0.00,Wunderground v.1.15,2013-01-06 13:35:00,
2013-01-06 07:41:00,32.8,26.7,30.39,NNW,343,4.0,10.0,78,0.00,,,0.00,Wunderground v.1.15,2013-01-06 13:41:00,
2013-01-06 07:47:00,32.9,26.8,30.39,North,349,4.0,10.0,78,0.00,,,0.00,Wunderground v.1.15,2013-01-06 13:47:00,
2013-01-06 07:52:00,32.9,26.5,30.40,North,356,5.0,10.0,77,0.00,,,0.00,Wunderground v.1.15,2013-01-06 13:52:00,
2013-01-06 07:58:00,32.9,26.5,30.40,North,356,5.0,10.0,77,0.00,,,0.00,Wunderground v.1.15,2013-01-06 13:58:00,
2013-01-06 08:03:00,32.9,26.8,30.40,North,9,4.0,10.0,78,0.00,,,0.00,Wunderground v.1.15,2013-01-06 14:03:00,
2013-01-06 08:09:00,33.0,26.9,30.40,NE,43,4.0,10.0,78,0.00,,,0.00,Wunderground v.1.15,2013-01-06 14:09:00,
2013-01-06 08:15:00,33.4,27.3,30.40,NNE,16,4.0,10.0,78,0.00,,,0.00,Wunderground v.1.15,2013-01-06 14:15:00,
2013-01-06 08:21:00,33.9,27.4,30.40,NNW,348,4.0,10.0,77,0.00,,,0.00,Wunderground v.1.15,2013-01-06 14:21:00,
2013-01-06 08:27:00,34.3,27.8,30.41,NNE,33,5.0,10.0,77,0.00,,,0.00,Wunderground v.1.15,2013-01-06 14:27:00,
2013-01-06 08:33:00,34.9,28.1,30.42,North,4,4.0,10.0,76,0.00,,,0.00,Wunderground v.1.15,2013-01-06 14:33:00,
2013-01-06 08:39:00,35.6,28.1,30.42,North,352,5.0,10.0,74,0.00,,,0.00,Wunderground v.1.15,2013-01-06 14:39:00,
2013-01-06 08:44:00,36.3,28.5,30.42,North,1,7.0,10.0,73,0.00,,,0.00,Wunderground v.1.15,2013-01-06 14:44:00,
2013-01-06 08:49:00,36.9,28.4,30.42,North,11,7.0,10.0,71,0.00,,,0.00,Wunderground v.1.15,2013-01-06 14:49:00,
2013-01-06 08:55:00,37.4,28.9,30.43,North,352,7.0,10.0,71,0.00,,,0.00,Wunderground v.1.15,2013-01-06 14:55:00,
2013-01-06 09:00:00,37.8,28.9,30.43,NNE,22,6.0,6.0,70,0.00,,,0.00,Wunderground v.1.15,2013-01-06 15:00:00,
2013-01-06 09:06:00,38.1,29.2,30.43,NNW,329,6.0,10.0,70,0.00,,,0.00,Wunderground v.1.15,2013-01-06 15:06:00,
2013-01-06 09:12:00,38.7,29.4,30.43,North,11,6.0,10.0,69,0.00,,,0.00,Wunderground v.1.15,2013-01-06 15:12:00,
2013-01-06 09:17:00,39.1,28.7,30.43,NNW,342,7.0,10.0,66,0.00,,,0.00,Wunderground v.1.15,2013-01-06 15:17:00,
2013-01-06 09:23:00,39.7,29.6,30.43,North,4,7.0,10.0,67,0.00,,,0.00,Wunderground v.1.15,2013-01-06 15:23:00,
2013-01-06 09:29:00,40.4,29.9,30.43,North,355,7.0,10.0,66,0.00,,,0.00,Wunderground v.1.15,2013-01-06 15:29:00,
2013-01-06 09:35:00,40.6,29.4,30.44,NNW,346,8.0,10.0,64,0.00,,,0.00,Wunderground v.1.15,2013-01-06 15:35:00,
2013-01-06 09:40:00,41.0,29.7,30.44,NNE,12,8.0,10.0,64,0.00,,,0.00,Wunderground v.1.15,2013-01-06 15:40:00,
2013-01-06 09:45:00,41.2,30.3,30.44,North,349,7.0,10.0,65,0.00,,,0.00,Wunderground v.1.15,2013-01-06 15:45:00,
2013-01-06 09:50:00,41.5,29.8,30.44,North,9,7.0,7.0,63,0.00,,,0.00,Wunderground v.1.15,2013-01-06 15:50:00,
2013-01-06 09:55:00,41.8,30.1,30.44,NNE,21,8.0,12.0,63,0.00,,,0.00,Wunderground v.1.15,2013-01-06 15:55:00,
2013-01-06 10:01:00,42.3,30.6,30.44,NNE,27,8.0,10.0,63,0.00,,,0.00,Wunderground v.1.15,2013-01-06 16:01:00,
2013-01-06 10:06:00,42.6,31.3,30.44,North,349,7.0,10.0,64,0.00,,,0.00,Wunderground v.1.15,2013-01-06 16:06:00,
2013-01-06 10:11:00,42.8,30.7,30.45,NNE,15,7.0,10.0,62,0.00,,,0.00,Wunderground v.1.15,2013-01-06 16:11:00,
2013-01-06 10:16:00,43.0,30.9,30.45,North,352,7.0,11.0,62,0.00,,,0.00,Wunderground v.1.15,2013-01-06 16:16:00,
2013-01-06 10:22:00,43.7,31.5,30.45,NNW,333,7.0,10.0,62,0.00,,,0.00,Wunderground v.1.15,2013-01-06 16:22:00,
2013-01-06 10:27:00,44.1,31.1,30.45,ENE,67,8.0,14.0,60,0.00,,,0.00,Wunderground v.1.15,2013-01-06 16:27:00,
2013-01-06 10:33:00,44.3,31.3,30.45,NE,54,8.0,10.0,60,0.00,,,0.00,Wunderground v.1.15,2013-01-06 16:33:00,
2013-01-06 10:38:00,44.5,31.5,30.45,NE,43,8.0,12.0,60,0.00,,,0.00,Wunderground v.1.15,2013-01-06 16:38:00,
2013-01-06 10:43:00,45.0,31.5,30.45,NE,41,8.0,11.0,59,0.00,,,0.00,Wunderground v.1.15,2013-01-06 16:43:00,
2013-01-06 10:48:00,45.2,32.1,30.45,North,356,7.0,11.0,60,0.00,,,0.00,Wunderground v.1.15,2013-01-06 16:48:00,
2013-01-06 10:53:00,45.3,31.4,30.44,NNE,18,8.0,10.0,58,0.00,,,0.00,Wunderground v.1.15,2013-01-06 16:53:00,
2013-01-06 10:59:00,46.1,32.1,30.44,ENE,68,8.0,12.0,58,0.00,,,0.00,Wunderground v.1.15,2013-01-06 16:59:00,
2013-01-06 11:04:00,46.0,32.0,30.45,NNE,31,9.0,12.0,58,0.00,,,0.00,Wunderground v.1.15,2013-01-06 17:04:00,
2013-01-06 11:09:00,46.7,32.3,30.45,ENE,63,8.0,12.0,57,0.00,,,0.00,Wunderground v.1.15,2013-01-06 17:09:00,
2013-01-06 11:14:00,47.0,32.1,30.44,NE,48,7.0,10.0,56,0.00,,,0.00,Wunderground v.1.15,2013-01-06 17:14:00,
2013-01-06 11:19:00,47.2,32.7,30.44,NE,56,8.0,11.0,57,0.00,,,0.00,Wunderground v.1.15,2013-01-06 17:19:00,
2013-01-06 11:24:00,47.4,32.5,30.44,ENE,66,9.0,10.0,56,0.00,,,0.00,Wunderground v.1.15,2013-01-06 17:24:00,
2013-01-06 11:29:00,47.8,32.9,30.44,NNE,23,8.0,10.0,56,0.00,,,0.00,Wunderground v.1.15,2013-01-06 17:29:00,
2013-01-06 11:35:00,48.2,33.2,30.44,NNE,32,7.0,10.0,56,0.00,,,0.00,Wunderground v.1.15,2013-01-06 17:35:00,
2013-01-06 11:40:00,48.9,33.0,30.43,NE,37,7.0,10.0,54,0.00,,,0.00,Wunderground v.1.15,2013-01-06 17:40:00,
2013-01-06 11:46:00,48.9,32.0,30.43,North,9,7.0,11.0,52,0.00,,,0.00,Wunderground v.1.15,2013-01-06 17:46:00,
2013-01-06 11:51:00,49.5,32.6,30.43,NE,56,8.0,10.0,52,0.00,,,0.00,Wunderground v.1.15,2013-01-06 17:51:00,
2013-01-06 11:57:00,49.8,32.4,30.43,NE,43,7.0,10.0,51,0.00,,,0.00,Wunderground v.1.15,2013-01-06 17:57:00,
2013-01-06 12:02:00,50.2,32.3,30.43,NNE,24,7.0,10.0,50,0.00,,,0.00,Wunderground v.1.15,2013-01-06 18:02:00,
2013-01-06 12:08:00,50.3,31.8,30.42,NE,47,6.0,10.0,49,0.00,,,0.00,Wunderground v.1.15,2013-01-06 18:08:00,
2013-01-06 12:14:00,50.4,31.4,30.42,NE,54,7.0,10.0,48,0.00,,,0.00,Wunderground v.1.15,2013-01-06 18:14:00,
2013-01-06 12:19:00,50.4,31.4,30.42,NNE,32,8.0,11.0,48,0.00,,,0.00,Wunderground v.1.15,2013-01-06 18:19:00,
2013-01-06 12:24:00,50.8,31.8,30.42,NE,46,7.0,12.0,48,0.00,,,0.00,Wunderground v.1.15,2013-01-06 18:24:00,
2013-01-06 12:30:00,51.3,32.3,30.41,ENE,65,7.0,7.0,48,0.00,,,0.00,Wunderground v.1.15,2013-01-06 18:30:00,
2013-01-06 12:35:00,51.3,30.7,30.41,ENE,64,7.0,11.0,45,0.00,,,0.00,Wunderground v.1.15,2013-01-06 18:35:00,
2013-01-06 12:41:00,51.4,30.7,30.41,ENE,68,7.0,8.0,45,0.00,,,0.00,Wunderground v.1.15,2013-01-06 18:41:00,
2013-01-06 12:46:00,52.0,30.7,30.40,NE,41,7.0,11.0,44,0.00,,,0.00,Wunderground v.1.15,2013-01-06 18:46:00,
2013-01-06 12:51:00,51.9,30.6,30.40,ENE,70,8.0,10.0,44,0.00,,,0.00,Wunderground v.1.15,2013-01-06 18:51:00,
2013-01-06 12:56:00,52.0,30.7,30.40,NE,54,8.0,10.0,44,0.00,,,0.00,Wunderground v.1.15,2013-01-06 18:56:00,
2013-01-06 13:01:00,52.3,31.0,30.39,East,86,7.0,10.0,44,0.00,,,0.00,Wunderground v.1.15,2013-01-06 19:01:00,
2013-01-06 13:07:00,52.7,31.4,30.39,East,98,7.0,10.0,44,0.00,,,0.00,Wunderground v.1.15,2013-01-06 19:07:00,
2013-01-06 13:12:00,53.0,30.5,30.39,ENE,63,7.0,10.0,42,0.00,,,0.00,Wunderground v.1.15,2013-01-06 19:12:00,
2013-01-06 13:17:00,53.2,29.5,30.38,NE,44,8.0,11.0,40,0.00,,,0.00,Wunderground v.1.15,2013-01-06 19:17:00,
2013-01-06 13:22:00,53.1,29.4,30.38,ENE,65,9.0,11.0,40,0.00,,,0.00,Wunderground v.1.15,2013-01-06 19:22:00,
2013-01-06 13:28:00,53.2,29.5,30.38,NNE,31,9.0,12.0,40,0.00,,,0.00,Wunderground v.1.15,2013-01-06 19:28:00,
2013-01-06 13:33:00,53.3,29.6,30.38,NE,35,9.0,14.0,40,0.00,,,0.00,Wunderground v.1.15,2013-01-06 19:33:00,
2013-01-06 13:39:00,53.6,31.0,30.37,NE,49,9.0,14.0,42,0.00,,,0.00,Wunderground v.1.15,2013-01-06 19:39:00,
2013-01-06 13:44:00,54.1,30.3,30.37,NNE,32,8.0,10.0,40,0.00,,,0.00,Wunderground v.1.15,2013-01-06 19:44:00,
2013-01-06 13:49:00,54.1,30.3,30.37,East,79,8.0,10.0,40,0.00,,,0.00,Wunderground v.1.15,2013-01-06 19:49:00,
2013-01-06 13:55:00,54.2,30.4,30.36,ENE,59,8.0,12.0,40,0.00,,,0.00,Wunderground v.1.15,2013-01-06 19:55:00,
2013-01-06 14:01:00,54.0,30.8,30.36,NE,56,8.0,10.0,41,0.00,,,0.00,Wunderground v.1.15,2013-01-06 20:01:00,
2013-01-06 14:06:00,54.2,30.4,30.36,ENE,68,8.0,10.0,40,0.00,,,0.00,Wunderground v.1.15,2013-01-06 20:06:00,
2013-01-06 14:11:00,54.3,30.5,30.35,ENE,68,8.0,10.0,40,0.00,,,0.00,Wunderground v.1.15,2013-01-06 20:11:00,
2013-01-06 14:17:00,54.5,30.0,30.35,NNE,32,9.0,12.0,39,0.00,,,0.00,Wunderground v.1.15,2013-01-06 20:17:00,
2013-01-06 14:19:00,54.2,30.4,30.35,NNE,31,10.0,12.0,40,0.00,,,0.00,Wunderground v.1.15,2013-01-06 20:19:00,
2013-01-06 14:24:00,54.3,30.5,30.35,ENE,60,9.0,10.0,40,0.00,,,0.00,Wunderground v.1.15,2013-01-06 20:24:00,
2013-01-06 14:30:00,54.6,30.7,30.35,ENE,59,8.0,8.0,40,0.00,,,0.00,Wunderground v.1.15,2013-01-06 20:30:00,
2013-01-06 14:36:00,54.9,31.0,30.35,East,84,8.0,10.0,40,0.00,,,0.00,Wunderground v.1.15,2013-01-06 20:36:00,
2013-01-06 14:41:00,55.0,30.5,30.35,NE,56,7.0,10.0,39,0.00,,,0.00,Wunderground v.1.15,2013-01-06 20:41:00,
2013-01-06 14:46:00,54.8,30.9,30.34,ENE,76,8.0,10.0,40,0.00,,,0.00,Wunderground v.1.15,2013-01-06 20:46:00,
2013-01-06 14:51:00,55.5,30.9,30.34,NE,48,7.0,10.0,39,0.00,,,0.00,Wunderground v.1.15,2013-01-06 20:51:00,
2013-01-06 14:57:00,55.2,30.0,30.34,NE,38,8.0,13.0,38,0.00,,,0.00,Wunderground v.1.15,2013-01-06 20:57:00,
2013-01-06 15:02:00,55.1,29.9,30.34,NNE,19,9.0,10.0,38,0.00,,,0.00,Wunderground v.1.15,2013-01-06 21:02:00,
2013-01-06 15:03:00,55.1,30.6,30.34,NE,52,9.0,10.0,39,0.00,,,0.00,Wunderground v.1.15,2013-01-06 21:03:00,
2013-01-06 15:09:00,55.7,30.5,30.34,NNE,25,8.0,11.0,38,0.00,,,0.00,Wunderground v.1.15,2013-01-06 21:09:00,
2013-01-06 15:15:00,55.4,29.5,30.34,NNE,29,9.0,12.0,37,0.00,,,0.00,Wunderground v.1.15,2013-01-06 21:15:00,
2013-01-06 15:21:00,55.6,29.7,30.34,ENE,66,9.0,10.0,37,0.00,,,0.00,Wunderground v.1.15,2013-01-06 21:21:00,
2013-01-06 15:27:00,56.1,29.5,30.34,ENE,76,7.0,10.0,36,0.00,,,0.00,Wunderground v.1.15,2013-01-06 21:27:00,
2013-01-06 15:32:00,56.1,30.2,30.33,ENE,68,6.0,10.0,37,0.00,,,0.00,Wunderground v.1.15,2013-01-06 21:32:00,
2013-01-06 15:38:00,56.0,30.1,30.33,ENE,73,7.0,11.0,37,0.00,,,0.00,Wunderground v.1.15,2013-01-06 21:38:00,
2013-01-06 15:44:00,55.9,30.0,30.33,ENE,64,8.0,10.0,37,0.00,,,0.00,Wunderground v.1.15,2013-01-06 21:44:00,
2013-01-06 15:49:00,56.1,29.5,30.33,ENE,60,8.0,10.0,36,0.00,,,0.00,Wunderground v.1.15,2013-01-06 21:49:00,
2013-01-06 15:55:00,56.2,28.9,30.33,NE,44,8.0,10.0,35,0.00,,,0.00,Wunderground v.1.15,2013-01-06 21:55:00,
2013-01-06 16:00:00,56.5,28.4,30.33,NE,46,8.0,8.0,34,0.00,,,0.00,Wunderground v.1.15,2013-01-06 22:00:00,
2013-01-06 16:06:00,56.5,29.1,30.33,ENE,72,7.0,10.0,35,0.00,,,0.00,Wunderground v.1.15,2013-01-06 22:06:00,
2013-01-06 16:12:00,56.5,28.4,30.33,NE,53,7.0,10.0,34,0.00,,,0.00,Wunderground v.1.15,2013-01-06 22:12:00,
2013-01-06 16:17:00,56.2,28.9,30.33,ENE,66,7.0,10.0,35,0.00,,,0.00,Wunderground v.1.15,2013-01-06 22:17:00,
2013-01-06 16:22:00,56.3,28.3,30.33,NE,39,7.0,11.0,34,0.00,,,0.00,Wunderground v.1.15,2013-01-06 22:22:00,
2013-01-06 16:27:00,56.0,28.7,30.33,ENE,66,6.0,11.0,35,0.00,,,0.00,Wunderground v.1.15,2013-01-06 22:27:00,
2013-01-06 16:33:00,55.9,27.2,30.33,NE,53,6.0,10.0,33,0.00,,,0.00,Wunderground v.1.15,2013-01-06 22:33:00,
2013-01-06 16:38:00,55.7,28.4,30.33,ENE,69,7.0,11.0,35,0.00,,,0.00,Wunderground v.1.15,2013-01-06 22:38:00,
2013-01-06 16:43:00,55.5,28.3,30.33,East,90,7.0,10.0,35,0.00,,,0.00,Wunderground v.1.15,2013-01-06 22:43:00,
2013-01-06 16:48:00,55.5,29.0,30.33,ENE,62,6.0,10.0,36,0.00,,,0.00,Wunderground v.1.15,2013-01-06 22:48:00,
2013-01-06 16:53:00,55.3,27.4,30.33,NE,54,6.0,10.0,34,0.00,,,0.00,Wunderground v.1.15,2013-01-06 22:53:00,
2013-01-06 16:59:00,55.0,27.8,30.33,NE,51,6.0,10.0,35,0.00,,,0.00,Wunderground v.1.15,2013-01-06 22:59:00,
2013-01-06 17:05:00,54.9,28.4,30.34,ENE,72,6.0,10.0,36,0.00,,,0.00,Wunderground v.1.15,2013-01-06 23:05:00,
2013-01-06 17:11:00,54.7,28.2,30.34,NE,43,5.0,10.0,36,0.00,,,0.00,Wunderground v.1.15,2013-01-06 23:11:00,
2013-01-06 17:16:00,54.6,28.8,30.34,NE,48,6.0,10.0,37,0.00,,,0.00,Wunderground v.1.15,2013-01-06 23:16:00,
2013-01-06 17:21:00,54.2,28.5,30.34,ENE,65,5.0,10.0,37,0.00,,,0.00,Wunderground v.1.15,2013-01-06 23:21:00,
2013-01-06 17:26:00,53.9,28.8,30.34,ENE,66,5.0,10.0,38,0.00,,,0.00,Wunderground v.1.15,2013-01-06 23:26:00,
2013-01-06 17:31:00,53.2,28.9,30.34,ENE,63,3.0,10.0,39,0.00,,,0.00,Wunderground v.1.15,2013-01-06 23:31:00,
2013-01-06 17:37:00,52.5,28.8,30.34,ENE,59,2.0,10.0,40,0.00,,,0.00,Wunderground v.1.15,2013-01-06 23:37:00,
2013-01-06 17:42:00,51.9,28.9,30.34,ENE,59,2.0,10.0,41,0.00,,,0.00,Wunderground v.1.15,2013-01-06 23:42:00,
2013-01-06 17:48:00,51.1,28.8,30.35,ENE,62,2.0,10.0,42,0.00,,,0.00,Wunderground v.1.15,2013-01-06 23:48:00,
2013-01-06 17:54:00,50.5,28.8,30.35,ENE,68,2.0,10.0,43,0.00,,,0.00,Wunderground v.1.15,2013-01-06 23:54:00,
2013-01-06 18:00:00,49.6,28.6,30.35,ENE,66,2.0,10.0,44,0.00,,,0.00,Wunderground v.1.15,2013-01-07 00:00:00,
2013-01-06 18:06:00,48.9,28.5,30.35,ENE,74,2.0,10.0,45,0.00,,,0.00,Wunderground v.1.15,2013-01-07 00:06:00,
2013-01-06 18:11:00,48.3,28.5,30.35,ENE,74,2.0,10.0,46,0.00,,,0.00,Wunderground v.1.15,2013-01-07 00:11:00,
2013-01-06 18:17:00,47.7,28.4,30.35,ENE,68,2.0,10.0,47,0.00,,,0.00,Wunderground v.1.15,2013-01-07 00:17:00,
2013-01-06 18:22:00,47.5,28.8,30.35,ENE,75,2.0,10.0,48,0.00,,,0.00,Wunderground v.1.15,2013-01-07 00:22:00,
2013-01-06 18:28:00,47.3,28.6,30.35,ENE,63,2.0,10.0,48,0.00,,,0.00,Wunderground v.1.15,2013-01-07 00:28:00,
2013-01-06 18:33:00,47.1,28.4,30.35,ENE,71,2.0,10.0,48,0.00,,,0.00,Wunderground v.1.15,2013-01-07 00:33:00,
2013-01-06 18:39:00,46.8,28.6,30.35,ENE,71,2.0,10.0,49,0.00,,,0.00,Wunderground v.1.15,2013-01-07 00:39:00,
2013-01-06 18:45:00,46.5,28.3,30.35,ENE,71,2.0,10.0,49,0.00,,,0.00,Wunderground v.1.15,2013-01-07 00:45:00,
2013-01-06 18:50:00,46.2,28.6,30.35,ENE,71,2.0,2.0,50,0.00,,,0.00,Wunderground v.1.15,2013-01-07 00:50:00,
2013-01-06 18:56:00,45.7,28.6,30.35,ENE,70,1.0,10.0,51,0.00,,,0.00,Wunderground v.1.15,2013-01-07 00:56:00,
2013-01-06 19:02:00,45.3,28.2,30.36,ENE,71,1.0,10.0,51,0.00,,,0.00,Wunderground v.1.15,2013-01-07 01:02:00,
2013-01-06 19:08:00,45.2,28.6,30.36,ENE,71,0.0,10.0,52,0.00,,,0.00,Wunderground v.1.15,2013-01-07 01:08:00,
2013-01-06 19:13:00,45.0,28.4,30.36,ENE,71,0.0,10.0,52,0.00,,,0.00,Wunderground v.1.15,2013-01-07 01:13:00,
2013-01-06 19:19:00,44.5,28.0,30.36,ENE,70,0.0,10.0,52,0.00,,,0.00,Wunderground v.1.15,2013-01-07 01:19:00,
2013-01-06 19:24:00,43.9,27.9,30.36,ENE,71,0.0,10.0,53,0.00,,,0.00,Wunderground v.1.15,2013-01-07 01:24:00,
2013-01-06 19:30:00,43.5,27.9,30.37,ENE,72,0.0,10.0,54,0.00,,,0.00,Wunderground v.1.15,2013-01-07 01:30:00,
2013-01-06 19:35:00,43.1,28.0,30.37,ENE,72,0.0,10.0,55,0.00,,,0.00,Wunderground v.1.15,2013-01-07 01:35:00,
2013-01-06 19:40:00,43.3,28.2,30.37,ENE,72,0.0,10.0,55,0.00,,,0.00,Wunderground v.1.15,2013-01-07 01:40:00,
2013-01-06 19:45:00,42.9,27.8,30.37,ENE,72,0.0,10.0,55,0.00,,,0.00,Wunderground v.1.15,2013-01-07 01:45:00,
2013-01-06 19:51:00,42.6,28.0,30.38,ENE,72,0.0,10.0,56,0.00,,,0.00,Wunderground v.1.15,2013-01-07 01:51:00,
2013-01-06 19:57:00,42.4,27.8,30.38,ENE,72,0.0,10.0,56,0.00,,,0.00,Wunderground v.1.15,2013-01-07 01:57:00,
2013-01-06 20:02:00,42.2,28.0,30.38,ENE,72,0.0,10.0,57,0.00,,,0.00,Wunderground v.1.15,2013-01-07 02:02:00,
2013-01-06 20:07:00,42.3,28.1,30.38,ENE,72,0.0,10.0,57,0.00,,,0.00,Wunderground v.1.15,2013-01-07 02:07:00,
2013-01-06 20:12:00,42.5,28.3,30.38,ENE,72,0.0,10.0,57,0.00,,,0.00,Wunderground v.1.15,2013-01-07 02:12:00,
2013-01-06 20:18:00,42.7,28.1,30.38,ENE,72,0.0,10.0,56,0.00,,,0.00,Wunderground v.1.15,2013-01-07 02:18:00,
2013-01-06 20:23:00,42.9,28.3,30.39,ENE,72,0.0,10.0,56,0.00,,,0.00,Wunderground v.1.15,2013-01-07 02:23:00,
2013-01-06 20:29:00,42.8,28.2,30.38,ENE,72,0.0,10.0,56,0.00,,,0.00,Wunderground v.1.15,2013-01-07 02:29:00,
2013-01-06 20:35:00,42.7,28.5,30.39,SW,233,0.0,10.0,57,0.00,,,0.00,Wunderground v.1.15,2013-01-07 02:35:00,
2013-01-06 20:41:00,42.7,28.5,30.39,SSW,204,1.0,10.0,57,0.00,,,0.00,Wunderground v.1.15,2013-01-07 02:41:00,
2013-01-06 20:46:00,42.3,28.1,30.39,SW,215,1.0,10.0,57,0.00,,,0.00,Wunderground v.1.15,2013-01-07 02:46:00,
2013-01-06 20:52:00,42.0,28.3,30.39,SSW,212,1.0,10.0,58,0.00,,,0.00,Wunderground v.1.15,2013-01-07 02:52:00,
2013-01-06 20:58:00,42.2,28.0,30.39,SSW,212,0.0,10.0,57,0.00,,,0.00,Wunderground v.1.15,2013-01-07 02:58:00,
2013-01-06 21:04:00,42.3,28.1,30.39,SSW,212,0.0,10.0,57,0.00,,,0.00,Wunderground v.1.15,2013-01-07 03:04:00,
2013-01-06 21:10:00,42.2,28.0,30.39,SSW,212,0.0,10.0,57,0.00,,,0.00,Wunderground v.1.15,2013-01-07 03:10:00,
2013-01-06 21:16:00,42.2,28.0,30.39,SSW,212,0.0,10.0,57,0.00,,,0.00,Wunderground v.1.15,2013-01-07 03:16:00,
2013-01-06 21:22:00,42.0,28.3,30.39,SSW,212,0.0,10.0,58,0.00,,,0.00,Wunderground v.1.15,2013-01-07 03:22:00,
2013-01-06 21:27:00,41.8,28.1,30.39,SSW,212,0.0,10.0,58,0.00,,,0.00,Wunderground v.1.15,2013-01-07 03:27:00,
2013-01-06 21:33:00,41.2,27.5,30.39,SSW,212,0.0,10.0,58,0.00,,,0.00,Wunderground v.1.15,2013-01-07 03:33:00,
2013-01-06 21:38:00,40.5,27.3,30.39,SSW,212,0.0,10.0,59,0.00,,,0.00,Wunderground v.1.15,2013-01-07 03:38:00,
2013-01-06 21:43:00,39.6,27.2,30.39,SSW,212,0.0,10.0,61,0.00,,,0.00,Wunderground v.1.15,2013-01-07 03:43:00,
2013-01-06 21:49:00,39.2,27.3,30.39,SSW,212,0.0,10.0,62,0.00,,,0.00,Wunderground v.1.15,2013-01-07 03:49:00,
2013-01-06 21:54:00,39.1,27.6,30.39,SSW,212,0.0,10.0,63,0.00,,,0.00,Wunderground v.1.15,2013-01-07 03:54:00,
2013-01-06 21:59:00,39.1,27.6,30.39,SSW,212,0.0,10.0,63,0.00,,,0.00,Wunderground v.1.15,2013-01-07 03:59:00,
2013-01-06 22:05:00,38.8,27.3,30.39,SSW,212,0.0,10.0,63,0.00,,,0.00,Wunderground v.1.15,2013-01-07 04:05:00,
2013-01-06 22:10:00,39.0,27.8,30.39,SSW,212,0.0,10.0,64,0.00,,,0.00,Wunderground v.1.15,2013-01-07 04:10:00,
2013-01-06 22:16:00,39.5,27.9,30.39,SSW,212,0.0,10.0,63,0.00,,,0.00,Wunderground v.1.15,2013-01-07 04:16:00,
2013-01-06 22:22:00,39.5,27.9,30.38,SSW,212,0.0,10.0,63,0.00,,,0.00,Wunderground v.1.15,2013-01-07 04:22:00,
2013-01-06 22:28:00,39.3,28.1,30.38,SSW,212,0.0,10.0,64,0.00,,,0.00,Wunderground v.1.15,2013-01-07 04:28:00,
2013-01-06 22:34:00,39.8,28.2,30.38,SSW,212,0.0,10.0,63,0.00,,,0.00,Wunderground v.1.15,2013-01-07 04:34:00,
2013-01-06 22:40:00,40.1,28.1,30.38,SSW,212,0.0,10.0,62,0.00,,,0.00,Wunderground v.1.15,2013-01-07 04:40:00,
2013-01-06 22:47:00,39.7,27.7,30.38,SSW,212,0.0,10.0,62,0.00,,,0.00,Wunderground v.1.15,2013-01-07 04:47:00,
2013-01-06 22:53:00,39.3,27.7,30.38,SSW,212,0.0,10.0,63,0.00,,,0.00,Wunderground v.1.15,2013-01-07 04:53:00,
2013-01-06 22:59:00,40.1,28.1,30.38,SSW,212,0.0,10.0,62,0.00,,,0.00,Wunderground v.1.15,2013-01-07 04:59:00,
2013-01-06 23:00:00,40.3,27.9,30.38,SSW,212,0.0,10.0,61,0.00,,,0.00,Wunderground v.1.15,2013-01-07 05:00:00,
2013-01-06 23:02:00,40.5,27.7,30.38,SSW,212,0.0,10.0,60,0.00,,,0.00,Wunderground v.1.15,2013-01-07 05:02:00,
2013-01-06 23:03:00,40.6,27.8,30.38,SSW,212,0.0,10.0,60,0.00,,,0.00,Wunderground v.1.15,2013-01-07 05:03:00,
2013-01-06 23:08:00,40.9,27.7,30.38,SSW,212,0.0,10.0,59,0.00,,,0.00,Wunderground v.1.15,2013-01-07 05:08:00,
2013-01-06 23:12:00,40.8,27.6,30.38,SSW,212,0.0,10.0,59,0.00,,,0.00,Wunderground v.1.15,2013-01-07 05:12:00,
2013-01-06 23:18:00,40.8,27.2,30.38,SSW,212,0.0,10.0,58,0.00,,,0.00,Wunderground v.1.15,2013-01-07 05:18:00,
2013-01-06 23:24:00,40.9,27.2,30.38,SSW,212,0.0,10.0,58,0.00,,,0.00,Wunderground v.1.15,2013-01-07 05:24:00,
2013-01-06 23:30:00,40.8,26.7,30.37,SSW,212,0.0,10.0,57,0.00,,,0.00,Wunderground v.1.15,2013-01-07 05:30:00,
2013-01-06 23:36:00,40.5,26.9,30.37,SSW,212,0.0,10.0,58,0.00,,,0.00,Wunderground v.1.15,2013-01-07 05:36:00,
2013-01-06 23:41:00,40.0,26.8,30.37,SSW,212,0.0,10.0,59,0.00,,,0.00,Wunderground v.1.15,2013-01-07 05:41:00,
2013-01-06 23:46:00,39.6,26.8,30.37,SSW,212,0.0,10.0,60,0.00,,,0.00,Wunderground v.1.15,2013-01-07 05:46:00,
2013-01-06 23:52:00,39.2,26.5,30.37,SSW,212,0.0,10.0,60,0.00,,,0.00,Wunderground v.1.15,2013-01-07 05:52:00,
2013-01-06 23:58:00,39.3,27.0,30.37,SSW,212,0.0,10.0,61,0.00,,,0.00,Wunderground v.1.15,2013-01-07 05:58:00,